Cosmos 1812 - Orbit

View from above orbital plane
View from above orbital plane
View from above satellite
View from above satellite

Ground track
Ground track

The orbit data is extracted from the following two-line orbital elements,

1 17295U 87003A   13145.12799860  .00003500  00000-0  23539-3 0   497
2 17295 082.5209 157.3224 0011883 173.6832 298.5525 15.06406690434821
Epoch (UTC): 25 May 2013 03:04:19
Eccentricity: 0.0011883
inclination: 82.5209°
perigee height: 539 km
apogee height: 555 km
right ascension of ascending node: 157.3224°
argument of perigee: 173.6832°
revolutions per day: 15.06406690
mean anomaly at epoch: 298.5525°
orbit number at epoch: 43482

The dashed part of the orbit path shows where the satellite is in the earth's shadow,  

Developed and maintained by Chris Peat, Heavens-Above GmbH. Please read the updated FAQ before sending e-mail. Imprint. DLR